Simultaneous Nadir Overpasses (SNOs) Predictions

Prediction of SNOs between FY3D and TERRA Satellite Orbit:

Table of predicted SNOs for the next 14.0 days since TLE Epoch: 7/26/2025
Index Date (FY3D) Time (FY3D) Lat,Lon (FY3D) SZA (FY3D ) Date (TERRA) Time (TERRA) Lat,Lon (TERRA) SZA (TERRA ) Distance(km) Time Diff (sec)
1 07/26/2025 14:14:14 -77.95, 146.56 121.40 07/26/2025 14:15:21 -77.95, 146.74 121.41 4.09 67
2 07/26/2025 15:04:58 77.90, -45.85 58.56 07/26/2025 15:04:42 77.88, -45.92 58.53 3.34 16
3 07/29/2025 00:35:50 78.31, 169.23 59.54 07/29/2025 00:36:55 78.26, 172.66 59.47 77.55 65
4 07/29/2025 01:26:24 -77.92, -21.22 120.87 07/29/2025 01:26:22 -77.91, -21.25 120.88 1.28 2
5 07/31/2025 11:47:51 77.93, 3.42 59.74 07/31/2025 11:48:02 77.93, 3.37 59.74 1.06 11
6 07/31/2025 12:38:34 -77.89, 170.97 120.30 07/31/2025 12:37:22 -77.90, 170.89 120.29 2.14 72
7 08/02/2025 22:09:17 -77.95, 28.00 119.62 08/02/2025 22:09:42 -77.94, 27.96 119.64 1.38 25
8 08/02/2025 23:00:01 77.90,-164.40 60.33 08/02/2025 22:59:02 77.90,-164.56 60.33 3.89 59
9 08/05/2025 08:30:44 77.97, 52.61 61.05 08/05/2025 08:31:21 77.97, 52.62 61.05 0.24 37
10 08/05/2025 09:21:26 -77.93,-139.84 118.99 08/05/2025 09:20:40 -77.95,-139.81 118.97 2.34 46
11 08/07/2025 18:52:09 -78.00, 77.15 118.25 08/07/2025 18:53:00 -77.97, 77.14 118.29 3.69 51



Historial Predications of SNOs between FY3D and TERRA
